Regional Weather Roundup
Issued by NWS Upton, NY

Home | Current Version | Previous Version | Text Only | Print | Product List | Glossary On
Versions: 1 2 3 4 5 6 7 8 9 10 11 12 13 14 15 16 17 18 19 20 21 22 23 24 25 26 27 28 29 30 31 32 33 34 35 36 37 38 39 40 41 42 43 44 45 46 47 48
000
ASUS41 KOKX 070205
RWROKX

REGIONAL WEATHER ROUNDUP
NATIONAL WEATHER SERVICE NEW YORK NY
900 PM EST FRI MAR 06 2015

NOTE: "FAIR" INDICATES FEW OR NO CLOUDS BELOW 12,000 FEET WITH NO
SIGNIFICANT WEATHER AND/OR OBSTRUCTIONS TO VISIBILITY.

NYZ071-072-176-178-NJZ106-104-070300-
NEW YORK CITY METRO AREA


CITY           SKY/WX    TMP DP  RH WIND       PRES   REMARKS
CENTRAL PARK   MOCLDY    23   6  48 W10G16    30.39F WCI  12
LAGUARDIA APRT MOCLDY    24   8  50 SW10      30.38F WCI  14
KENNEDY INTL   MOCLDY    23  10  57 SW13      30.41F WCI  11
NEWARK/LIBERTY MOCLDY    20   8  60 S8        30.40F WCI  10
BRNX BOT. GARD   N/A    N/A N/A N/A W8        30.37F
TETERBORO      PTCLDY    21   6  52 S8        30.38F WCI  11
$$

NYZ177-179-078>081-070300-
LONG ISLAND NEW YORK

CITY           SKY/WX    TMP DP  RH WIND       PRES   REMARKS
FARMINGDALE    MOCLDY    21  10  62 SW6       30.39F WCI  13
ISLIP          MOCLDY    20   8  60 S5        30.38F WCI  13
SHIRLEY        PTCLDY    18   8  65 SW3       30.40F
WESTHAMPTON    PTCLDY     2  -6  69 CALM      30.41F
MONTAUK POINT    N/A     21  10  62 SW3       30.39F
$$

NYZ052-065-067-070300-
HUDSON VALLEY

CITY           SKY/WX    TMP DP  RH WIND       PRES   REMARKS
WHITE PLAINS   PTCLDY    21   6  52 SW5       30.33F WCI  15
NEWBURGH       PTCLDY    21   5  49 CALM      30.33F
MONTGOMERY     FAIR      21   4  47 SW15      30.31F WCI   8
POUGHKEEPSIE   PTCLDY    23   5  46 CALM      30.34F
ALBANY         MOCLDY    17   2  51 CALM      30.31F
$$

NJZ001-105-106-008-010-013-015-019>022-104-070300-
NEW JERSEY

CITY           SKY/WX    TMP DP  RH WIND       PRES   REMARKS
NEWARK/LIBERTY MOCLDY    20   8  60 S8        30.40F WCI  10
TETERBORO      PTCLDY    21   6  52 S8        30.38F WCI  11
CALDWELL       PTCLDY    20   4  50 SW5       30.39S WCI  13
MORRISTOWN     CLEAR     19   7  58 SW5       30.40F WCI  13
SOMERVILLE     PTCLDY    15   8  73 CALM      30.38F
SUSSEX         PTCLDY    19   2  47 CALM      30.34F
ANDOVER          N/A     11   6  81 CALM      30.34S
TRENTON        PTCLDY    19   7  59 SW5       30.40S WCI  12
MILLVILLE      PTCLDY     7  32 100 W3        30.42F
ATLANTIC CITY  PTCLDY    15  12  88 SW5       30.42F WCI   8
WRIGHTSTOWN    PTCLDY    15   9  77 S3        30.38F
TOMS RIVER     PTCLDY    12  12 100 CALM      30.42S
BELMAR         MOCLDY    18   9  68 SW5       30.39F WCI  11
$$

PAZ047>061-062-071-070300-
EASTERN PENNSYLVANIA

CITY           SKY/WX    TMP DP  RH WIND       PRES   REMARKS
PHILADELPHIA   MOCLDY    20   6  55 W7        30.44S WCI  11
ALLENTOWN      PTCLDY    15   3  59 SW6       30.37F WCI   6
SCRANTON       PTCLDY    18  -2  41 SW6       30.30S WCI  10
$$

CTZ002-004>006-009-010-012-RIZ004-006-007-MAZ004-011-015-070300-
SOUTHERN NEW ENGLAND
 IN CT

CITY           SKY/WX    TMP DP  RH WIND       PRES   REMARKS
BRADLEY INTL   MOCLDY    21   7  54 S8        30.34S WCI  11
HARTFORD       MOCLDY    20   8  60 S8        30.37F WCI  10
DANBURY        MOCLDY    20   6  55 S3        30.34F
WTRBRY/OXFORD  CLEAR     19   1  45 SW7       30.32F WCI  10
BRIDGEPORT     MOCLDY    23  12  62 SW15      30.38F WCI  10
MERIDEN        MOCLDY    17   7  64 S3        30.37F
NEW HAVEN      MOCLDY    23  12  62 SW12G17   30.38F WCI  12
CHESTER        FAIR      21   9  58 SW7       30.36S WCI  13
GROTON         MOCLDY    21   5  50 SW10      30.38F WCI  10
WILLIMANTIC    MOCLDY    19   5  54 S5        30.36F WCI  12

 IN RI

CITY           SKY/WX    TMP DP  RH WIND       PRES   REMARKS
PROVIDENCE     MOCLDY    16   6  65 SW7       30.38F WCI   6
BLOCK ISLAND   PTCLDY    21   9  58 SW8       30.36F WCI  12
WESTERLY       MOCLDY    20   9  62 SW6       30.38F WCI  12

 IN MA

CITY           SKY/WX    TMP DP  RH WIND       PRES   REMARKS
BOSTON         MOCLDY    20   8  60 SW14      30.35F WCI   7
WORCESTER      MOCLDY    17  -5  37 SW13      30.26F WCI   4
WESTFIELD      PTCLDY    18  -1  43 S7        30.32F WCI   9
PROVINCETOWN   CLEAR     21  12  68 SW14      30.37F WCI   8
NANTUCKET      CLEAR     14   8  77 W6        30.38F WCI   5
$$

ANZ330-335-338-340-345-350-353-355-070300-
COASTAL MARINE OBSERVATIONS


STATION/POSITION TIME  SKY/WX   TEMP    WIND        PRES    VSBY  WAVE
                                AIR SEA DIR/SP/G                  HT/PER
                 (UTC)          (F)     (DEG/KT/KT) (MB)    (MI)  (FT/S)
NY HARB ENTRANCE 0200            25 38  230/ 12/ 14 1029.1          2/10
4S FIRE IS       NOT AVBL
20S FIRE ISLAND  0100               36              1030.7          2/ 8
23SW MTP         0200                                 N/A           2/ 9
HUDSON CANYON    NOT AVBL
EXECUTION ROCKS  NOT AVBL
WESTERN LI SOUND NOT AVBL
CENTRAL LI SOUND NOT AVBL
EASTERN LI SOUND NOT AVBL
ROBBINS REEF     0200            23     210/  9/ 11 1028.0
$$


>>>>>>>>>>>>>>>>>>>>>>>>>>>> KEY <<<<<<<<<<<<<<<<<<<<<<<<<<<
>                                                          <
>     SKY/WX - SKY CONDITION/PRESENT WEATHER               <
>     TMP    - TEMPERATURE IN FAHRENHEIT                   <
>     DP     - DEWPOINT IN FAHRENHEIT                      <
>     RH     - RELATIVE HUMIDITY IN PERCENT                <
>     WIND   - DIRECTION AND SPEED IN MPH                  <
>     PRES   - MEAN SEA LEVEL PRESSURE IN INCHES OF HG     <
>     WCI    - WIND CHILL INDEX                            <
>     VSB    - VISIBILITY IN MILES                         <
>     HX     - HEAT INDEX                                  <
>     TC     - TEMPERATURE IN CELSIUS                      <
>     VRB    - VARIABLE WIND DIRECTION                     <
>                                                          <
>>>>>>>>>>>>>>>>>>>>>>>>>>>> KEY <<<<<<<<<<<<<<<<<<<<<<<<<<<





USA.gov is the U.S. government's official web portal to all federal, state and local government web resources and services.